Weather History for PAGK - August, 2014

Change the Weather History Date:

Sunday, August 17, 2014

  Actual Average Record
Temperature  
Mean Temperature 50 °F -  
Max Temperature 54 °F 65 °F 84 °F (2004)
Min Temperature 46 °F 41 °F 25 °F (1969)
Degree Days  
Heating Degree Days 15    
Moisture  
Dew Point 47 °F    
Average Humidity 89    
Maximum Humidity 97    
Minimum Humidity 63    
Precipitation  
Precipitation 0.16 in - - ()
Sea Level Pressure  
Sea Level Pressure 29.68 in    
Wind  
Wind Speed 5 mph (South)    
Max Wind Speed 8 mph    
Max Gust Speed -    
Visibility 8 miles    
Events Rain    
Averages and records for this station are not official NWS values.
T = Trace of Precipitation, MM = Missing Value Source: NWS Daily Summary

Daily Weather History Graph

Daily Weather History Graph

Search for Another Location

Airport or City:

Trip Planner

Search our weather history database for the weather conditions in past years. The results will help you decide how hot, cold, wet, or windy it might be!

Date:

Astronomy

Aug. 17, 2014 Rise Set
Actual Time 5:51 AM AKDT 9:38 PM AKDT
Civil Twilight 4:54 AM AKDT 10:34 PM AKDT
Nautical Twilight 3:25 AM AKDT 12:00 AM AKDT
Astronomical Twilight Sun does not rise Sun does not rise
Moon 11:42 PM AKDT (8/17) 4:15 PM AKDT (8/17)
Length of Visible Light 17h 39m
Length of Day
15h 47m
Waning Gibbous, 47% of the Moon is Illuminated
Aug 17
Waning Gibbous
Aug 25
New
Sep 2
First Quarter
Sep 8
Full
Sep 15
Last Quarter

Hourly Weather History & Observations

Time (AKDT) Temp. Dew Point Humidity Pressure Visibility Wind Dir Wind Speed Gust Speed Precip Events Conditions
12:53 AM 51.1 °F 41.0 °F 68% 29.74 in 10.0 mi ENE 4.6 mph - N/A   Overcast
1:53 AM 52.0 °F 39.9 °F 63% 29.74 in 10.0 mi East 6.9 mph - 0.00 in Rain Light Rain
2:53 AM 51.1 °F 41.0 °F 68% 29.73 in 10.0 mi East 6.9 mph - 0.00 in Rain Light Rain
3:53 AM 50.0 °F 44.1 °F 80% 29.72 in 10.0 mi ENE 4.6 mph - 0.02 in   Overcast
4:53 AM 48.9 °F 44.1 °F 83% 29.70 in 10.0 mi ENE 6.9 mph - 0.00 in Rain Light Rain
6:53 AM 48.0 °F 46.0 °F 93% 29.68 in 10.0 mi NNE 5.8 mph - 0.01 in Rain Light Rain
7:53 AM 48.0 °F 46.0 °F 93% 29.66 in 9.0 mi NNW 4.6 mph - 0.02 in Rain Light Rain
8:53 AM 46.9 °F 46.0 °F 97% 29.66 in 6.0 mi North 3.5 mph - 0.04 in Rain Light Rain
9:53 AM 48.0 °F 46.9 °F 96% 29.65 in 6.0 mi Calm Calm - 0.09 in Rain Light Rain
2:44 PM 51.1 °F 48.9 °F 92% 29.60 in 6.0 mi Calm Calm - 0.04 in Rain Light Rain
2:53 PM 51.1 °F 48.9 °F 92% 29.62 in 6.0 mi Calm Calm - 0.05 in Rain Light Rain
3:08 PM 51.1 °F 48.9 °F 92% 29.61 in 4.0 mi Calm Calm - 0.02 in Rain Light Rain
3:29 PM 51.1 °F 50.0 °F 96% 29.61 in 7.0 mi West 3.5 mph - 0.04 in Rain Light Rain
4:49 PM 50.0 °F 48.2 °F 94% 29.62 in 6.0 mi WSW 4.6 mph - 0.04 in Rain Light Rain
4:53 PM 50.0 °F 48.9 °F 96% 29.64 in 5.0 mi WSW 4.6 mph - 0.04 in Rain Light Rain
5:06 PM 50.0 °F 48.0 °F 93% 29.62 in 5.0 mi WSW 5.8 mph - 0.02 in Rain Light Rain
5:53 PM 51.1 °F 48.9 °F 92% 29.65 in 10.0 mi SW 5.8 mph - 0.04 in Rain Light Rain
6:50 PM 51.8 °F 50.0 °F 94% 29.64 in 10.0 mi SSW 3.5 mph - 0.03 in   Overcast
6:53 PM 51.1 °F 50.0 °F 96% 29.67 in 10.0 mi SSW 3.5 mph - 0.03 in   Overcast
7:53 PM 52.0 °F 50.0 °F 93% 29.68 in 10.0 mi SSW 3.5 mph - N/A   Overcast
9:53 PM 50.0 °F 48.9 °F 96% 29.72 in 9.0 mi South 6.9 mph - N/A   Overcast
10:53 PM 50.0 °F 48.9 °F 96% 29.74 in 10.0 mi SSE 8.1 mph - N/A   Overcast
11:53 PM 50.0 °F 48.9 °F 96% 29.76 in 2.5 mi South 5.8 mph - N/A   Overcast